OPS 4682 DEB, 38408

Orbit data source: Space-Track

OPS 4682 DEB, 38408 is space debris in LEO originally from a launch on Sat, 03 Apr 1965 UTC launched from the Air Force Western Test Range (AFWTR). Debris objects in space refer to the collection of defunct objects orbiting the Earth. Examples of debris include non-operational satellites, rocket bodies, and fragments generated from explosions, collisions, or faulty payload assembly.

Loading next visibility...
Identifier
38408, 1965-027DM
Orbit
LEO
Country
Flag of USUS
Related business
Manufacturer
Unknown
Mission
Spacecraft
Bus & Motor
Unknown
Mass
Unknown
Launch date (UTC)
1965-04-03 (61 years ago)
Launch vehicle
Unknown
Launch site
Air Force Western Test Range (AFWTR)
Object type
Payload
Rocket body
Debris
Shape & HBR
Unknown shape, 0.1 m
Radar Cross Section
Small (<0.1 m²)

Expand to show TLE details & history
Last TLE update: 1 week ago

TLE from 1 week ago
0 OPS 4682 DEB
1 38408U 65027DM  26198.95124169  .00000921  00000-0  29276-2 0  9996
2 38408  90.2855  16.2576 0045155  84.8761 275.7514 13.02181597609211
Epoch: 2026-07-17T22:49Z
TLE epoch observation values (Epoch: 2026-07-17T22:49:47.282Z)
Latitude
0.00002°
Longitude
98.03961°
Altitude
1,253.138 km
Speed
7.23 km/s
True Right ascension
01h 05m 01s
True Declination
0° 00' 00"
Sunlit
Object was in daylight at epoch
Visualization orbit readout
Latitude
Unknown
Longitude
Unknown
Altitude
Unknown
Speed
Unknown
Apparent Right ascension
Unknown
Apparent Declination
Unknown
Sunlit
N/A
Visualization observer readout
Local Sidereal Time
21:05:21
Azimuth
Unknown
Elevation
Unknown
Doppler factor
Unknown
Orbital elements
Apogee altitude
1,285.123 km
Perigee altitude
1,216.227 km
Semi-major axis
7,628.812 km
Eccentricity
0.00452
Inclination
90.2855°
RAAN
16.2576°
Arg. of periapsis
84.8761°
True anomaly
275.23628°
Mean anomaly
275.7514°
Eccentric anomaly
275.49387°
Mean motion
3.2573 °/min
Orbital period
110.52 mins
BSTAR
0.0029276
Loading maneuver chart data...
Computing Atmospheric mass density...
Loading historical data...
Loading historical data...
Loading historical data...
Loading historical data...
Loading historical data...
Loading historical data...
Loading historical data...

Documentation

Showing up to 5 results
|